Regional Weather Roundup
Issued by NWS Green Bay, WI

Home | Current Version | Previous Version | Text Only | Print | Product List | Glossary On
Versions: 1 2 3 4 5 6 7 8 9 10 11 12 13 14 15 16 17 18 19 20 21 22 23 24 25 26 27 28 29 30 31 32 33 34 35 36 37 38 39 40 41 42 43 44 45 46 47 48 49 50
000
ASUS43 KGRB 010410
RWRGRB

NORTH-CENTRAL AND NORTHEAST WISCONSIN REGIONAL WEATHER ROUNDUP
NATIONAL WEATHER SERVICE GREEN BAY WI
1000 PM CST SAT FEB 28 2015

WIZ005-009-010>012-018-019-010500-
NORTH CENTRAL WISCONSIN

CITY           SKY/WX    TMP DP  RH WIND       PRES   REMARKS
IRONWOOD       CLOUDY    12  -2  52 S14G20    30.24S WCI  -3
MANITOWISH WTR CLOUDY     9  -4  54 S5        30.26F WCI   1
ARBOR VITAE    CLOUDY    11  -3  52 S9        30.27F WCI  -1
EAGLE RIVER    MOCLDY     9  -6  49 CALM      30.27F
LAND O LAKES   CLOUDY    10  -5  50 S3        30.27F
RHINELANDER    CLOUDY    11  -4  51 S9        30.29F WCI  -2
PHILLIPS       CLOUDY    11  -3  52 SW8       30.29S WCI   0
ANTIGO         CLOUDY    10  -1  59 S10       30.33S WCI  -3
TOMAHAWK       CLOUDY    11  -3  53 CALM      30.32S
MERRILL        CLOUDY    14  -2  49 S8        30.34S WCI   3
$$

WIZ013-073-010500-
NORTHEAST WISCONSIN

CITY           SKY/WX    TMP DP  RH WIND       PRES   REMARKS
IRON MOUNTAIN  MOCLDY    10  -3  55 S7        30.33F WCI  -1
MARINETTE      CLOUDY    10   1  67 SW9       30.42F WCI  -2
OCONTO         CLOUDY    14   1  56 SW7       30.44S WCI   4
$$

WIZ017-030-035>037-045-010500-
CENTRAL WISCONSIN

CITY           SKY/WX    TMP DP  RH WIND       PRES   REMARKS
MEDFORD        CLOUDY    12  -1  54 S9        30.32F WCI   0
WAUSAU         CLOUDY    14  -1  51 S9        30.35S WCI   2
MOSINEE        MOCLDY    12   1  62 S10       30.38S WCI  -1
MARSHFIELD     CLOUDY    15  -1  49 S12       30.36S WCI   2
WISC RAPIDS    CLOUDY    14  -2  49 S9        30.41F WCI   2
STEVENS POINT  CLOUDY    12   1  59 S10       30.40S WCI  -1
WAUPACA        CLOUDY    16   2  54 S9        30.43F WCI   5
SHAWANO        CLOUDY    16   3  56 SW5       30.43S WCI   9
CLINTONVILLE   CLOUDY    16   3  57 S12       30.43S WCI   3
$$

WIZ038-039-048-051-010500-
FOX VALLEY

CITY           SKY/WX    TMP DP  RH WIND       PRES   REMARKS
NWS GREEN BAY  CLOUDY    15   2  56 S12       30.45F WCI   2
APPLETON       CLOUDY    14   1  57 SW10      30.44F WCI   1
OSHKOSH        CLOUDY    15   2  56 S9        30.45S WCI   3
FOND DU LAC    CLOUDY    16   1  51 S10       30.45F WCI   4
$$

WIZ022-050-052-010500-
EAST CENTRAL WISCONSIN

CITY           SKY/WX    TMP DP  RH WIND       PRES   REMARKS
STURGEON BAY   CLOUDY    12   3  67 S8        30.45F WCI   1
MANITOWOC      CLOUDY    17   5  59 SW8       30.47F WCI   7
SHEBOYGAN      CLOUDY    16   3  56 SW8       30.46F WCI   5
$$

LMZ563-521-522-541>543-010500-
LAKESHORE

STATION/POSITION TIME  TEMP    WIND        PRES    VSBY  WAVE
                       AIR SEA DIR/SP/G                  HT/PER
                 (UTC) (F)     (DEG/KT/KT) (MB)    (MI)  (FT/S)
SHEBOYGAN LKSHOR 0400   18     230/ 11/ 13 1033.5F
KEWAUNEE LKSHORE 0400   16     230/  8/ 12 1030.6S
NORTHPORT PIER   0400   13     160/  1/  7 1030.5F
SISTER BAY LKSHO 0300   14     210/  8/  9   N/A
CHAMBERS ISLAND  0400   13     190/  7/ 11 1030.5F
MENOMINEE LKSHOR 0400   12     200/  6     1031.2S
$$


USA.gov is the U.S. government's official web portal to all federal, state and local government web resources and services.